Regional Weather Roundup
Issued by NWS Newport/Morehead, NC

Current Version | Previous Version | Text Only | Print | Product List | Glossary Off
Versions: 1 2 3 4 5 6 7 8 9 10 11 12 13 14 15 16 17 18 19 20 21 22 23 24 25 26 27 28 29 30 31 32 33 34 35 36 37 38 39 40 41 42 43 44 45 46 47 48 49 50
000 ASUS42 KMHX 101712 RWRMHX WEATHER ROUNDUP FOR EASTERN NORTH CAROLINA NATIONAL WEATHER SERVICE NEWPORT/MOREHEAD CITY NC 1200 PM EST SAT DEC 10 2016 NOTE: "FAIR" INDICATES FEW OR NO CLOUDS BELOW 12,000 FEET WITH NO SIGNIFICANT WEATHER AND/OR OBSTRUCTIONS TO VISIBILITY NCZ015>017-031-032-045>047-102-103-101800- NORTH COAST CITY SKY/WX TMP DP RH WIND PRES REMARKS EDENTON SUNNY 40 19 42 CALM 30.52F ELIZABETH CITY SUNNY 40 20 44 N6 30.50F KITTY HAWK SUNNY 40 26 56 NW5 30.48F MANTEO SUNNY 39 18 42 N6 30.50F $$ NCZ045>047-081-094-103-104-101800- CENTRAL COAST CITY SKY/WX TMP DP RH WIND PRES REMARKS FRISCO SUNNY 43 20 39 VRB5 30.49F $$ NCZ095-097-098-100-101-101800- SOUTHERN COAST CITY SKY/WX TMP DP RH WIND PRES REMARKS BEAUFORT SUNNY 44 24 45 VRB5 30.50F CEDAR ISLAND NOT AVBL JACKSONVILLE SUNNY 40 18 41 MISG 30.52F PINEY ISLAND SUNNY N/A N/A N/A NW8 30.50F WILMINGTON SUNNY 42 18 37 CALM 30.52F $$ NCZ011>013-027>030-043-044-078>080-089-090>093-098-101800- COASTAL PLAIN CITY SKY/WX TMP DP RH WIND PRES REMARKS AHOSKIE SUNNY 36 16 44 CALM 30.52F CLINTON SUNNY 38 19 46 CALM 30.55F ELIZABETHTOWN SUNNY 38 19 46 CALM 30.54F GOLDSBORO SUNNY 39 15 38 W7 30.51F GREENVILLE SUNNY 36 18 48 NE5 30.53F HAVELOCK SUNNY 41 20 43 VRB6 30.52F KENANSVILLE SUNNY 37 18 44 NE3 30.54F KINSTON SUNNY 39 18 41 CALM 30.53F NEW BERN SUNNY 40 19 43 VRB3 30.53F RICHLANDS SUNNY 39 19 44 VRB6 30.53F ROCKY MOUNT SUNNY 37 16 42 CALM 30.53F WASHINGTON SUNNY 39 17 40 N3 30.52F WHITEVILLE SUNNY 39 17 42 CALM 30.53F $$ AMZ130-135-150-152-154-156-158-170-250-252-270-ANZ085-086-088-633-658-670-101800- MARINE OBSERVATIONS STATION/POSITION TIME TEMP WIND PRES WAVE SWELL AIR SEA DIR/SP/G HT/PER HT/PER (UTC) (F) (DEG/KT/KT) (MB) (FT/S) (FT/S) CHESAPEAKE LIGHT NOT AVBL 64 E VA BEACH 1650 40 58 320/ 10/ 16 1031.3 4/ 6 3/ 6 DUCK 1648 37 51 300/ 9/ 11 1031.9 2 E DUCK NOT AVBL OREGON INLET 1642 39 49 290/ 7/ 10 1032.3 13E OREGON INLT NOT AVBL HATTERAS CG 1648 39 51 340/ 8/ 10 1032.1 DIAMOND BUOY 1650 42 77 330/ 12/ 17 1032.3 5/ 9 5/ 9 CAPE LOOKOUT 1700 40 350/ 5/ 8 1032.4 BEAUFORT LAB 1648 40 48 350/ 4/ 7 1031.9 30 SE NEW RVR IN 1608 43 69 40/ 4/ 10 1033.8 30 SE NEW RVR IN 1643 69 N/A 3/ 4 27 SE WRIGHTSVLE 1608 44 69 10/ 6/ 12 1033.6 5 SE WRIGHTSVLE 1608 37 60 10/ 10/ 16 1034.1 225 S CAPE HAT 1650 60 73 10/ 8/ 12 1029.2 5/ 8 5/ 8 41 SE CHARLESTON 1650 50 73 30/ 12/ 17 1032.2 3/ 5 2/ 8 $$

USA.gov is the U.S. government's official web portal to all federal, state and local government web resources and services.